Flag for Austria Weather past 2 weeks in Neunkirchen, Lower Austria, Austria

39 °F

Partly cloudy.

Feels Like: 32 °F
Forecast: 24 / 39 °F
Wind: 12 mph from North

Location: Vienna Schwechat-Flughafen Airport

Current Time: Nov 27, 2015 at 5:59:40 AM

Latest Report: Nov 27, 2015 at 4:50 AM

Visibility: N/A

Pressure: 30.07 "Hg

Humidity: 81%

Dew point: 34 °F

Location of NeunkirchenLocation

Historic Weather in Neunkirchen — Graph


Neunkirchen temperature yesterday

Maximum temperature yesterday: 39 °F (at 6:50 PM)
Minimum temperature yesterday: 32 °F (at 12:50 AM)
Average temperature yesterday: 36 °F

Past Weeks' High & Low Weather Summary

High68 °F (Nov 18, 10:50 AM)100% (Nov 12, 4:20 AM)30.39 "Hg (Nov 12, 4:20 AM)
Low23 °F (Nov 24, 5:50 AM)35% (Nov 18, 1:20 PM)29.39 "Hg (Nov 20, 9:20 PM)
Average47 °F71%29.98 "Hg
* Reported Nov 12 3:20 AM — Nov 27 3:50 AM, Neunkirchen, Weather by CustomWeather, © 2015

Note: Actual official high and low records may vary slightly from our data, if they occured in-between our weather recording intervals... More about our weather records


Neunkirchen weather history for previous 24 hours

Time TempWeatherWind HumidityBarometerVisibility
3:50 AM
Fri, Nov 27
39 °FPassing clouds.14 mph81%30.07 "HgN/A
3:20 AM39 °FPassing clouds.13 mph81%30.07 "HgN/A
2:50 AM39 °FPassing clouds.14 mph81%30.07 "HgN/A
2:20 AM39 °FPartly cloudy.15 mph81%30.07 "HgN/A
1:50 AM39 °FPassing clouds.14 mph81%30.07 "HgN/A
1:20 AM39 °FPassing clouds.15 mph81%30.07 "HgN/A
12:50 AM39 °FPassing clouds.15 mph81%30.07 "HgN/A
12:20 AM39 °FPassing clouds.13 mph81%30.07 "HgN/A
11:50 PM
Thu, Nov 26
39 °FPartly cloudy.14 mph81%30.07 "HgN/A
10:50 PM39 °FPassing clouds.13 mph81%30.04 "HgN/A
10:20 PM39 °FPassing clouds.14 mph81%30.04 "HgN/A
9:50 PM39 °FPassing clouds.14 mph81%30.04 "HgN/A
9:20 PM39 °FPassing clouds.14 mph81%30.04 "HgN/A
8:50 PM39 °FPassing clouds.15 mph81%30.04 "HgN/A
8:20 PM39 °FPassing clouds.15 mph81%30.01 "HgN/A
7:50 PM39 °FPassing clouds.14 mph81%30.01 "HgN/A
7:20 PM39 °FPassing clouds.15 mph81%29.98 "HgN/A
6:50 PM39 °FPassing clouds.16 mph81%29.98 "HgN/A
6:20 PM37 °FPassing clouds.15 mph87%29.98 "HgN/A
5:50 PM37 °FPassing clouds.15 mph87%29.95 "HgN/A
5:20 PM37 °FPartly cloudy.16 mph87%29.95 "HgN/A
4:50 PM37 °FPassing clouds.15 mph81%29.92 "HgN/A
4:20 PM37 °FPartly cloudy.16 mph81%29.92 "HgN/A
3:50 PM37 °FBroken clouds.17 mph81%29.89 "HgN/A
3:20 PM37 °FBroken clouds.17 mph81%29.89 "HgN/A
2:50 PM37 °FBroken clouds.16 mph81%29.89 "HgN/A
2:20 PM37 °FBroken clouds.16 mph81%29.86 "HgN/A
1:50 PM37 °FBroken clouds.17 mph81%29.86 "HgN/A
1:20 PM37 °FBroken clouds.12 mph81%29.86 "HgN/A
12:50 PM37 °FBroken clouds.14 mph81%29.86 "HgN/A
12:20 PM37 °FBroken clouds.14 mph81%29.86 "HgN/A
11:50 AM36 °FBroken clouds.14 mph87%29.83 "HgN/A
11:20 AM36 °FPartly sunny.10 mph87%29.83 "HgN/A
10:50 AM36 °FPartly sunny.12 mph87%29.83 "Hg6 mi
10:20 AM36 °FPartly sunny.10 mph87%29.83 "Hg6 mi
9:50 AM34 °FPartly sunny.12 mph93%29.83 "Hg5 mi
9:20 AM34 °FPartly sunny.10 mph93%29.83 "Hg4 mi
8:50 AM34 °FBroken clouds.9 mph93%29.83 "Hg4 mi
8:20 AM32 °FIce fog.8 mph100%29.80 "Hg3 mi
7:50 AM32 °FSleet. Ice fog.8 mph93%29.80 "Hg3 mi
7:20 AM32 °FIce fog.8 mph93%29.77 "Hg3 mi
6:50 AM32 °FPassing clouds.7 mph93%29.77 "Hg4 mi
6:20 AM32 °FPassing clouds.6 mph93%29.77 "Hg4 mi
5:50 AM32 °FLight snow. Passing clouds.6 mph93%29.77 "Hg4 mi
5:20 AM32 °FPassing clouds.6 mph93%29.77 "Hg4 mi
Weather by CustomWeather, © 2015

See weather overviewHow to use our weather pages